Location: Pallagorio
(39.3000°N, 16.9000°E)
Time: 01:05:55
(UTC+00:00)

Cosmos 2026 Rocket - Pass Details

Date: 24 January 2021
Orbit: 940 x 1000 km, 82.9° (Epoch: 08 March)

Event Time Altitude Azimuth Distance (km) Brightness Sun altitude
Rises 17:34:18 0° 185° (S) 3,598 7.2 -17.5°
Reaches altitude 10° 17:36:45 10° 185° (S) 2,663 6.5 -18.0°
Maximum altitude 17:42:51 89° 100° (E) 964 3.9 -19.1°
Drops below altitude 10° 17:49:05 10° 7° (N) 2,719 6.2 -20.3°
Sets 17:51:37 0° 8° (N) 3,679 6.9 -20.8°
